When you browse on this site, cookies collect data to enhance your experience and personalize the content and advertising you see.
Visit our Privacy Policy to learn more. By continuing to use the site, you agree to this use of cookies and data.
  • In Denmark
  • List of Countries
  • For 7 days
  • Water Temperature
  • Weather Map
  • Weather Widgets
  • user-avatar
    Login

    Hourly Weather Qala i Naw

    Today, 12 December, Thursday

    Time Temperature Precipitation Wind Pressure Humidity
    00:00 +7°C° 0 mm 0 mps 679 mmHg 75%
    01:00 +7°C° 0 mm 1 mps 679 mmHg 75%
    02:00 +7°C° 0 mm 1 mps 679 mmHg 76%
    03:00 +7°C° 0 mm 1 mps 679 mmHg 76%
    04:00 +7°C° 0 mm 1 mps 679 mmHg 77%
    05:00 +7°C° 0 mm 1 mps 679 mmHg 79%
    06:00 +6°C° 0 mm 1 mps 680 mmHg 82%
    07:00 +6°C° 0 mm 1 mps 680 mmHg 84%
    08:00 +6°C° 0.4 mm 1 mps 680 mmHg 87%
    09:00 +6°C° 0.4 mm 1 mps 680 mmHg 90%
    10:00 +6°C° 0.4 mm 1 mps 680 mmHg 93%
    11:00 +5°C° 1.1 mm 1 mps 680 mmHg 93%
    12:00 +4°C° 1.1 mm 2 mps 680 mmHg 94%
    13:00 +4°C° 1.1 mm 2 mps 679 mmHg 95%
    14:00 +4°C° 0.5 mm 2 mps 679 mmHg 95%
    15:00 +5°C° 0.5 mm 1 mps 679 mmHg 95%
    16:00 +5°C° 0.5 mm 1 mps 679 mmHg 95%
    17:00 +5°C° 0.3 mm 1 mps 680 mmHg 95%
    18:00 +5°C° 0.3 mm 1 mps 680 mmHg 95%
    19:00 +5°C° 0.3 mm 1 mps 681 mmHg 95%
    20:00 +5°C° 0.2 mm 1 mps 681 mmHg 95%
    21:00 +5°C° 0.2 mm 1 mps 681 mmHg 95%
    22:00 +5°C° 0.2 mm 1 mps 682 mmHg 95%
    23:00 +5°C° 0.1 mm 1 mps 681 mmHg 94%

    Tomorrow, 13 December, Friday

    Time Temperature Precipitation Wind Pressure Humidity
    00:00 +5°C° 0.1 mm 1 mps 681 mmHg 93%
    01:00 +5°C° 0.1 mm 1 mps 681 mmHg 92%
    02:00 +5°C° 0 mm 1 mps 681 mmHg 91%
    03:00 +5°C° 0 mm 1 mps 681 mmHg 90%
    04:00 +4°C° 0 mm 0 mps 680 mmHg 88%
    05:00 +4°C° 0 mm 0 mps 680 mmHg 89%
    06:00 +3°C° 0 mm 0 mps 680 mmHg 89%
    07:00 +3°C° 0 mm 0 mps 680 mmHg 90%
    08:00 +4°C° 0 mm 0 mps 681 mmHg 84%
    09:00 +5°C° 0 mm 0 mps 681 mmHg 79%
    10:00 +7°C° 0 mm 1 mps 681 mmHg 74%
    11:00 +7°C° 0 mm 1 mps 681 mmHg 70%
    12:00 +8°C° 0 mm 1 mps 680 mmHg 66%
    13:00 +9°C° 0 mm 1 mps 680 mmHg 63%
    14:00 +9°C° 0 mm 1 mps 680 mmHg 62%
    15:00 +9°C° 0 mm 1 mps 680 mmHg 62%
    16:00 +9°C° 0 mm 1 mps 679 mmHg 61%
    17:00 +7°C° 0 mm 0 mps 680 mmHg 64%
    18:00 +7°C° 0 mm 0 mps 680 mmHg 66%
    19:00 +6°C° 0 mm 0 mps 681 mmHg 69%
    20:00 +6°C° 0 mm 0 mps 681 mmHg 67%
    21:00 +5°C° 0 mm 0 mps 681 mmHg 66%
    22:00 +5°C° 0 mm 0 mps 681 mmHg 65%
    23:00 +5°C° 0 mm 0 mps 681 mmHg 64%

    Day after tomorrow, 14 December, Saturday

    Time Temperature Precipitation Wind Pressure Humidity
    00:00 +4°C° 0 mm 0 mps 681 mmHg 63%
    01:00 +5°C° 0 mm 1 mps 681 mmHg 62%
    02:00 +5°C° 0 mm 1 mps 681 mmHg 59%
    03:00 +5°C° 0 mm 1 mps 681 mmHg 57%
    04:00 +5°C° 0 mm 1 mps 681 mmHg 55%
    05:00 +5°C° 0 mm 1 mps 682 mmHg 54%
    06:00 +4°C° 0 mm 1 mps 682 mmHg 54%
    07:00 +3°C° 0 mm 0 mps 683 mmHg 54%
    08:00 +5°C° 0 mm 0 mps 683 mmHg 49%
    09:00 +6°C° 0 mm 0 mps 684 mmHg 44%
    10:00 +9°C° 0 mm 1 mps 685 mmHg 40%
    11:00 +9°C° 0 mm 1 mps 684 mmHg 39%
    12:00 +10°C° 0 mm 1 mps 684 mmHg 39%
    13:00 +10°C° 0 mm 1 mps 684 mmHg 39%
    14:00 +10°C° 0 mm 1 mps 684 mmHg 42%
    15:00 +9°C° 0 mm 2 mps 684 mmHg 46%
    16:00 +8°C° 0 mm 2 mps 684 mmHg 50%
    17:00 +8°C° 0 mm 1 mps 684 mmHg 55%
    18:00 +7°C° 0 mm 1 mps 684 mmHg 61%
    19:00 +7°C° 0 mm 1 mps 685 mmHg 66%
    20:00 +5°C° 0 mm 0 mps 685 mmHg 67%
    21:00 +5°C° 0 mm 0 mps 685 mmHg 67%
    22:00 +4°C° 0 mm 0 mps 685 mmHg 68%
    23:00 +4°C° 0 mm 0 mps 685 mmHg 68%

    15 December, Sunday

    Time Temperature Precipitation Wind Pressure Humidity
    00:00 +4°C° 0 mm 0 mps 684 mmHg 68%
    01:00 +4°C° 0 mm 0 mps 684 mmHg 68%
    02:00 +3°C° 0 mm 0 mps 684 mmHg 67%
    03:00 +3°C° 0 mm 0 mps 684 mmHg 66%
    04:00 +3°C° 0 mm 0 mps 684 mmHg 65%
    05:00 +3°C° 0 mm 0 mps 684 mmHg 65%
    06:00 +3°C° 0 mm 0 mps 684 mmHg 64%
    07:00 +4°C° 0 mm 1 mps 684 mmHg 63%
    08:00 +5°C° 0 mm 1 mps 684 mmHg 54%
    09:00 +7°C° 0 mm 1 mps 684 mmHg 45%
    10:00 +9°C° 0 mm 1 mps 685 mmHg 37%
    11:00 +10°C° 0 mm 1 mps 684 mmHg 34%
    12:00 +10°C° 0 mm 1 mps 683 mmHg 31%
    13:00 +11°C° 0 mm 1 mps 683 mmHg 29%
    14:00 +11°C° 0 mm 1 mps 683 mmHg 33%
    15:00 +10°C° 0 mm 1 mps 682 mmHg 37%
    16:00 +10°C° 0 mm 1 mps 682 mmHg 42%
    17:00 +9°C° 0 mm 1 mps 682 mmHg 44%
    18:00 +7°C° 0 mm 0 mps 683 mmHg 46%
    19:00 +6°C° 0 mm 0 mps 683 mmHg 49%
    20:00 +6°C° 0 mm 0 mps 683 mmHg 48%
    21:00 +5°C° 0 mm 0 mps 683 mmHg 47%
    22:00 +6°C° 0 mm 1 mps 683 mmHg 46%
    23:00 +6°C° 0 mm 1 mps 683 mmHg 46%

    16 December, Monday

    Time Temperature Precipitation Wind Pressure Humidity
    00:00 +6°C° 0 mm 1 mps 683 mmHg 45%
    01:00 +6°C° 0 mm 1 mps 683 mmHg 45%
    02:00 +5°C° 0 mm 1 mps 683 mmHg 44%
    03:00 +5°C° 0 mm 1 mps 683 mmHg 44%
    04:00 +5°C° 0 mm 1 mps 683 mmHg 43%
    05:00 +5°C° 0 mm 1 mps 683 mmHg 43%
    06:00 +5°C° 0 mm 1 mps 683 mmHg 43%
    07:00 +5°C° 0 mm 1 mps 683 mmHg 43%
    08:00 +7°C° 0 mm 1 mps 684 mmHg 39%
    09:00 +9°C° 0 mm 1 mps 684 mmHg 35%
    10:00 +11°C° 0 mm 1 mps 685 mmHg 30%
    11:00 +11°C° 0 mm 1 mps 685 mmHg 29%
    12:00 +12°C° 0 mm 1 mps 684 mmHg 29%
    13:00 +13°C° 0 mm 1 mps 684 mmHg 28%
    14:00 +12°C° 0 mm 1 mps 684 mmHg 32%
    15:00 +12°C° 0 mm 1 mps 684 mmHg 36%
    16:00 +11°C° 0 mm 1 mps 684 mmHg 40%
    17:00 +9°C° 0 mm 0 mps 684 mmHg 42%
    18:00 +8°C° 0 mm 0 mps 684 mmHg 44%
    19:00 +7°C° 0 mm 0 mps 684 mmHg 45%
    20:00 +7°C° 0 mm 0 mps 684 mmHg 46%
    21:00 +7°C° 0 mm 0 mps 685 mmHg 46%
    22:00 +6°C° 0 mm 0 mps 685 mmHg 47%
    23:00 +6°C° 0 mm 0 mps 685 mmHg 47%

    17 December, Tuesday

    Time Temperature Precipitation Wind Pressure Humidity
    00:00 +6°C° 0 mm 0 mps 685 mmHg 48%
    01:00 +6°C° 0 mm 0 mps 685 mmHg 48%
    02:00 +5°C° 0 mm 0 mps 685 mmHg 48%
    03:00 +6°C° 0 mm 1 mps 685 mmHg 49%
    04:00 +6°C° 0 mm 1 mps 685 mmHg 49%
    05:00 +6°C° 0 mm 1 mps 685 mmHg 49%
    06:00 +6°C° 0 mm 1 mps 685 mmHg 49%
    07:00 +6°C° 0 mm 1 mps 686 mmHg 49%
    08:00 +7°C° 0 mm 1 mps 686 mmHg 43%
    09:00 +9°C° 0 mm 1 mps 686 mmHg 38%
    10:00 +11°C° 0 mm 1 mps 687 mmHg 33%
    11:00 +12°C° 0 mm 1 mps 686 mmHg 32%
    12:00 +12°C° 0 mm 1 mps 686 mmHg 31%
    13:00 +13°C° 0 mm 1 mps 685 mmHg 31%
    14:00 +12°C° 0 mm 1 mps 685 mmHg 35%
    15:00 +12°C° 0 mm 1 mps 685 mmHg 39%
    16:00 +11°C° 0 mm 1 mps 685 mmHg 44%
    17:00 +10°C° 0 mm 1 mps 685 mmHg 46%
    18:00 +9°C° 0 mm 0 mps 685 mmHg 47%
    19:00 +8°C° 0 mm 0 mps 685 mmHg 49%
    20:00 +8°C° 0 mm 0 mps 685 mmHg 48%
    21:00 +9°C° 0 mm 1 mps 684 mmHg 46%
    22:00 +9°C° 0 mm 1 mps 684 mmHg 45%
    23:00 +9°C° 0 mm 1 mps 684 mmHg 45%
    Show more